This is the latest recevied weather packets stored in our database for station/object JI8TEY-15. If no packets are shown the sender has not sent any weather packets the latest 10 day(s).
| Time | Temp. | Humidity | Pressure | Rain* | Wind** | Luminosity | Snow |
|---|---|---|---|---|---|---|---|
| 1777755454 | 7.22° C | 94% | 1005 hPa | 0 mm | - | - | - |
| 1777751855 | 5° C | 98% | 1004 hPa | 0 mm | - | - | - |
| 1777748255 | 3.89° C | 97% | 1004 hPa | 0 mm | - | - | - |
| 1777744654 | 4.44° C | 95% | 1004 hPa | 0 mm | - | - | - |
| 1777741054 | 5° C | 94% | 1004 hPa | 0 mm | - | - | - |
| 1777737454 | 6.11° C | 93% | 1003 hPa | 0 mm | - | - | - |
| 1777733854 | 6.67° C | 93% | 1004 hPa | 1.02 mm | - | - | - |
| 1777730255 | 7.22° C | 89% | 1005 hPa | 0 mm | - | - | - |
| 1777726654 | 8.33° C | 89% | 1005 hPa | 0 mm | - | - | - |
| 1777723054 | 8.33° C | 89% | 1004 hPa | 0 mm | - | - | - |
| 1777719455 | 8.33° C | 88% | 1004 hPa | 0 mm | - | - | - |
| 1777715855 | 9.44° C | 80% | 1002 hPa | 0 mm | - | - | - |
| 1777712255 | 11.11° C | 57% | 1001 hPa | 0 mm | - | - | - |
| 1777708654 | 13.33° C | 56% | 999 hPa | 0 mm | - | - | - |
| 1777705055 | 13.33° C | 56% | 997 hPa | 0 mm | - | - | - |
| 1777701454 | 12.22° C | 76% | 996 hPa | 0 mm | - | - | - |
| 1777697854 | 12.22° C | 57% | 994 hPa | 0 mm | - | - | - |
| 1777694254 | 11.67° C | 84% | 994 hPa | 0 mm | - | - | - |
| 1777690655 | 10.56° C | 93% | 992 hPa | 0 mm | - | - | - |
| 1777687055 | 10.56° C | 97% | 991 hPa | 0 mm | - | - | - |
| 1777683454 | 11.67° C | 98% | 990 hPa | 0 mm | - | - | - |
| 1777679853 | 10.56° C | 99% | 987 hPa | 0 mm | - | - | - |
| 1777676255 | 10.56° C | 99% | 987 hPa | 0 mm | - | - | - |
| 1777672653 | 10° C | 99% | 986 hPa | 0 mm | - | - | - |
| 1777669054 | 10.56° C | 99% | 986 hPa | 0 mm | - | - | - |
* Rain latest hour (hover to see other rain measurements)
** Current wind speed in m/s (hover to see current wind gust speed)